www.pogodaiklimat.ru

Погода и климат >> Архив погоды >> Киргизия >> Бишкек


АРХИВ ПОГОДЫ в Бишкеке

Время (UTC), дата Ветер
(напр.,м/с)
 
Видим.   Явления Облачность Т
(С)
Тd
(С)
f
(%)
Тe
(С)
Тes
(С)
Комфортность P
(гПа)
Po
(гПа)
Тmin
(С)
Tmax
(С)
R
(мм)
R24
(мм)
S
(см)
00 20.07 Ю 1 20 км 6/0
[Ac trans]
+17.1 +8.8 58 +18 +18 по сезону 1010.3 925.4
03 20.07 СЗ 1 20 км 4/0
[Ac trans]
+22.9 +8.1 39 +24 +31 комфорт 1009.0 925.8
06 20.07 З 2 20 км 3/3 1000 м
[Cu hum]
+27.2 +8.5 31 +27 +40 жарко 1007.3 925.4
09 20.07 З 2 20 км 3/3 1000 м
[Cu hum]
+31.0 +7.1 22 +30 +40 жарко 1005.9 925.0
12 20.07 С 1 20 км 4/1 1000 м
[Cu hum Ac trans]
+30.8 +8.8 25 +30 +33 жарко 1005.7 924.8
15 20.07 ЮЗ 1 н/о 3/0
[Ac trans]
+27.4 +9.7 33 +28 +28 жарко 1007.0 925.2 +32.5
18 20.07 Ю 1 н/о ясно +22.3 +9.5 44 +24 +24 комфорт 1008.3 925.0 +32.5
21 20.07 штиль 0 н/о ясно +20.8 +12.4 59 +23 +23 комфорт 1007.8 924.2
00 21.07 Ю 1 20 км ясно +18.2 +9.9 58 +20 +20 тепло 1009.2 924.7
03 21.07 З 1 20 км ясно +23.1 +7.4 36 +24 +33 комфорт 1008.9 925.7
06 21.07 СЗ 2 20 км 1/1 1000 м
[Cu hum]
+29.3 +7.6 26 +29 +45 жарко 1007.1 925.7
09 21.07 СЗ 2 20 км 1/1 1000 м
[Cu hum]
+31.7 +5.6 19 +30 +44 жарко 1005.4 924.7
12 21.07 СЗ 1 20 км 3/1 1000 м
[Cu hum Ac trans]
+32.3 +5.5 19 +30 +34 жарко 1004.7 924.3
15 21.07 штиль 0 н/о 3/0
[Ac trans]
+28.1 +10.7 34 +29 +29 жарко 1006.2 924.6 +33.2
18 21.07 штиль 0 н/о ясно +22.7 +11.2 48 +25 +25 комфорт 1007.7 924.6 +33.2
21 21.07 штиль 0 н/о ясно +22.3 +9.3 43 +24 +24 комфорт 1007.3 924.1
00 22.07 штиль 0 20 км ясно +18.7 +10.5 59 +19 +19 по сезону 1009.6 925.3
03 22.07 В 1 20 км ясно +25.5 +9.5 36 +26 +35 жарко 1008.8 926.3
06 22.07 ЮЗ 1 20 км ясно +30.0 +9.3 28 +30 +51 опасность
солнечного
удара
1007.4 926.2
09 22.07 С 2 20 км 1/1 1000 м
[Cu hum]
+32.3 +9.2 24 +31 +45 жарко 1006.4 925.8
12 22.07 З 1 20 км 1/1 1000 м
[Cu hum]
+32.9 +6.7 20 +31 +35 жарко 1005.8 925.4
15 22.07 штиль 0 н/о 1/0
[Ac trans]
+29.1 +11.2 33 +30 +30 жарко 1006.6 925.3 +34.1
18 22.07 Ю 1 н/о ясно +24.2 +9.5 39 +25 +25 комфорт 1007.7 925.0 +34.1
21 22.07 штиль 0 н/о ясно +21.3 +10.0 48 +23 +23 комфорт 1007.4 923.9
00 23.07 ЮЗ 1 20 км 1/0
[Ci fib]
+18.5 +10.3 59 +20 +20 тепло 1008.4 924.2
03 23.07 З 1 20 км 3/0
[Ci fib]
+26.9 +9.9 34 +27 +35 жарко 1006.6 924.6
06 23.07 З 2 20 км 8/3 1000 м
[Cu hum Ci fib]
+31.0 +8.5 25 +30 +41 жарко 1004.8 924.0
09 23.07 ЮЗ 2 20 км 6/0
[Ac trans Ci fib]
+33.5 +2.7 14 +30 +41 жарко 1003.8 923.6
12 23.07 З 3 20 км 10/5 600 м
[Cb cap Ac lent Ci fib]
+32.2 +5.3 19 +30 +31 жарко 1003.6 923.2
15 23.07 Ю 1 н/о 8/0
[Ac trans Ci fib]
+27.9 +8.5 30 +28 +28 жарко 1005.4 923.8 +34.2
18 23.07 штиль 0 н/о 6/0
[Ci fib]
+24.0 +10.5 43 +25 +25 комфорт 1006.9 924.2 +34.2
21 23.07 Ю 1 н/о 6/0
[Ci fib]
+22.2 +8.6 42 +24 +24 комфорт 1006.5 923.3
00 24.07 Ю 2 20 км 8/0
[Ac lent Ci fib]
+20.2 +9.3 49 +22 +22 комфорт 1007.0 923.3
03 24.07 С 1 20 км 1/0
[Ci fib]
+26.5 +10.5 37 +27 +36 жарко 1005.2 923.4
06 24.07 СВ 1 20 км 1/1 1000 м
[Cu hum]
+31.2 +9.4 26 +31 +49 жарко 1003.3 922.7
09 24.07 СВ 1 20 км 1/1 1000 м
[Cu hum]
+34.5 +9.2 21 +33 +49 жарко 1001.1 921.5
12 24.07 СЗ 1 20 км 3/1 1000 м
[Cu hum Ci fib]
+35.1 +7.3 18 +33 +37 жарко 1000.3 920.9
15 24.07 З 1 н/о 1/0
[Ac trans]
+29.5 +12.3 35 +31 +31 жарко 1002.4 921.5 +36.1
18 24.07 СЗ 1 н/о ясно +23.9 +10.9 44 +25 +25 комфорт 1004.0 921.5 +36.1
21 24.07 штиль 0 н/о ясно +22.8 +10.5 46 +25 +25 комфорт 1003.6 920.9
00 25.07 Ю 1 н/о ясно +21.4 +10.2 49 +23 +23 комфорт 1004.1 920.9
03 25.07 С 1 20 км ясно +29.3 +10.0 30 +29 +38 жарко 1001.7 920.8
06 25.07 С 1 20 км 1/1 1000 м
[Cu hum]
+33.3 +6.8 19 +31 +50 жарко 1000.0 920.2
09 25.07 СЗ 2 20 км 3/3 1000 м
[Cu hum]
+35.2 +5.5 16 +33 +43 жарко 998.6 919.3
12 25.07 З 2 20 км 4/0
[Ac trans]
+36.3 +5.5 15 +34 +36 очень
жарко
997.8 918.9
15 25.07 Ю 1 н/о 4/0
[Ac trans]
+30.7 +11.2 30 +31 +31 жарко 999.3 919.0 +37.0
18 25.07 ЮВ 2 н/о 3/0
[Ac trans]
+27.9 +8.5 30 +28 +28 жарко 1000.5 919.3 +37.0
21 25.07 штиль 0 н/о ясно +23.2 +9.4 41 +25 +25 комфорт 1001.7 919.2
00 26.07 штиль 0 20 км 3/0
[Ci fib]
+21.2 +9.0 46 +22 +22 комфорт 1002.4 919.4
03 26.07 СВ 1 20 км 3/0
[Ci fib]
+30.9 +10.3 28 +31 +39 жарко 1000.5 920.1
06 26.07 СЗ 1 20 км 3/3 1000 м
[Cu hum]
+34.7 +0.9 12 +31 +46 жарко 999.6 920.0
09 26.07 С 1 20 км 3/3 1000 м
[Cu hum]
+37.6 +1.1 10 +34 +46 очень
жарко
997.8 919.1
12 26.07 З 1 20 км 3/3 1000 м
[Cu hum]
+37.8 -5.0 6 +33 +36 жарко 997.8 919.1
15 26.07 Ю 1 н/о 1/0
[Ac trans]
+31.2 +8.6 25 +30 +30 жарко 1000.1 919.7 +39.3
18 26.07 Ю 2 н/о ясно +28.8 +3.4 20 +27 +27 жарко 1000.8 919.7 +39.3
21 26.07 ЮВ 1 н/о ясно +23.8 +4.5 29 +24 +24 комфорт 1001.9 919.4

 

Местоположение метеостанции Бишкек (город Бишкек, Киргизия): широта 42.85 долгота 74.53 высота над уровнем моря 760 м.

В архиве по умолчанию представлена погода в Бишкеке за последнюю неделю. Архивные данные за месяц целиком и за предыдущие месяцы, начиная с января 2011 года, Вы можете получить, выбрав интересующий диапазон дат из раскрывающегося списка и нажав кнопку "Ввод!".

Внимание! Время в таблицах - всемирное. Для получения местного времени необходимо прибавить поправку, которая в Бишкеке равна 6 ч.

Смотрите также архив погоды в соседних городах и на ближайших метеорологических станциях:

Погода в Байтике (Чуйская область, Киргизия) (22 км)
Погода в Иссык-Ате (город Бишкек, Киргизия) (28 км)
Погода в Яны-Жере (Чуйская область, Киргизия) (46 км)
Погода в Бериктасе (Жамбылская область, Казахстан) (49 км)
Погода в Кара-Балте (Чуйская область, Киргизия) (58 км)
Погода в Тео-Ашуу (Чуйская область, Киргизия) (58 км)
Погода в Токмоке (Чуйская область, Киргизия) (61 км)
Погода в Кордае (Жамбылская область, Казахстан) (66 км)
Погода в Сусамыре (Чуйская область, Киргизия) (90 км)
Погода в Отаре (Жамбылская область, Казахстан) (96 км)

Пояснения к столбцам:

Ветер - указаны скорость ветра в м/с - средняя за 10 мин, порывы в срок и между сроками (в фигурных скобках) и направление, откуда дует ветер: С - северный, СВ - северо-восточный, В - восточный, ЮВ - юго-восточный, Ю - южный, ЮЗ - юго-западный, З - западный, СЗ - северо-западный.
Видимость - горизонтальная дальность видимости в метрах или километрах. При видимости от 1 до 10 км при отсутствии осадков обычно наблюдается дымка, при ухудшении видимости до 1 км и менее - туман. В сухую погоду видимость может ухудшаться дымом, пылью или мглою.
Явления - указаны атмосферные явления, наблюдавшиеся в срок или в последний час перед сроком; фигурными скобками обозначены явления, наблюдавшиеся между сроками (за 1-3 часа до срока); квадратными скобками обозначены град или гололедные отложения с указанием их диаметра в мм.
Облачность - указаны через наклонную черту общая и нижняя облачность в баллах и высота нижней границы облаков в метрах; квадратными скобками обозначены формы облаков: Ci - перистые, Cs - перисто-слоистые, Cc - перисто-кучевые, Ac - высококучевые, As - высокослоистые, Sc - слоисто-кучевые, Ns - слоисто-дождевые, Cu - кучевые, Cb - кучево-дождевые. Подробнее классификацию облаков см. в Атласе облаков (PDF).
T - Температура воздуха - температура, измеренная на высоте 2 м над землей.
Td - Температура точки росы - температура, при понижении до которой содержащийся в воздухе водяной пар достигнет насыщения.
f - Относительная влажность воздуха - влажноcть воздуха, измеренная на высоте 2 м над землей.
Te - Эффективная температура - температура, которую ощущает одетый по сезону человек в тени. Характеристика душности погоды. При расчете учитывается влияние влажности воздуха и скорости ветра на теплоощущения человека.
Tes - Эффективная температура на солнце - температура, которую ощущает человек, с поправкой на солнечный нагрев. Характеристика знойности погоды. Зависит от высоты солнца над горизонтом, облачности и скорости ветра. Ночью, в пасмурную погоду, а также при ветре 12 м/с и более поправка равна нулю.
P - Атмосферное давление - приведенное к уровню моря атмосферное давление.
Po - Атмосферное давление - измеренное на уровне метеостанции атмосферное давление.
Tmin - Минимальная температура - минимум температуры воздуха на высоте 2 м над землей.
Tmax - Максимальная температура - максимум температуры воздуха на высоте 2 м над землей.
R - Количество осадков - Количество выпавших осадков за период времени, мм. При наведении курсора мыши на число - период времени, за который выпало указанное количество осадков.
R24 - Количество осадков - Количество выпавших осадков за 24 часа, мм.
S - Снежный покров - Высота снежного покрова, см. При наведении курсора мыши на число - состояние снежного покрова и степень покрытия местности в баллах.